Voltar ao catálogo

SL-14 DEB

AtivoPO
NORAD 45270·DEBRIS·🇷🇺 Russia

Lançado Aug 15, 1991 de Plesetsk Cosmodrome

Loading…

Próximas Passagens (próximas 24 horas)

TLE

AtualizadoSource: Space-Track

Época: Sep 14, 2026, 04:02 UTC

1 45270U 91056G   26257.16821276  .00000109  00000-0  23022-3 0  9996
2 45270  82.5643  64.1690 0032522 176.1118 184.0267 13.22465614317815

Acompanhe SL-14 DEB em tempo real com AllMySat

Download on the App Store